Glendale Luke AFB, AZ

3:38 AM MST on April 25, 2018 (GMT -0700)
Luke Air Force Base

Weather History for KLUF - September, 2012

Change the Weather History Date:

Sunday, September 30, 2012

  Actual Average Record
Temperature  
Mean Temperature 86 °F -  
Max Temperature 101 °F 97 °F 108 °F (1980)
Min Temperature 71 °F 62 °F 47 °F (1934)
Cooling Degree Days 21    
Growing Degree Days 36 (Base 50)    
Moisture  
Dew Point 43 °F    
Average Humidity 24    
Maximum Humidity 38    
Minimum Humidity 10    
Precipitation  
Precipitation 0.00 in - - ()
Sea Level Pressure  
Sea Level Pressure 29.83 in    
Wind  
Wind Speed 6 mph (WNW)    
Max Wind Speed 13 mph    
Max Gust Speed -    
Visibility 10 miles    
Events      
Averages and records for this station are not official NWS values.
T = Trace of Precipitation, MM = Missing Value Source: NWS Daily Summary

Daily Weather History Graph

Daily Weather History Graph

Search for Another Location

Airport or City:

Astronomy

Sep. 30, 2012 Rise Set
Actual Time 6:23 AM MST 6:14 PM MST
Civil Twilight 5:58 AM MST 6:39 PM MST
Nautical Twilight 5:29 AM MST 7:08 PM MST
Astronomical Twilight 5:00 AM MST 7:37 PM MST
Moon 6:25 PM MST (9/30) 6:53 AM MST (9/30)
Length of Visible Light 12h 40m
Length of Day
11h 50m
Full, 100% of the Moon is Illuminated
Sep 30
Full
Oct 8
Last Quarter
Oct 15
New
Oct 21
First Quarter
Oct 29
Full

Hourly Weather History & Observations

Time (MST) Temp. Dew Point Humidity Pressure Visibility Wind Dir Wind Speed Gust Speed Precip Events Conditions
12:55 AM 79.3 °F 44.1 °F 29% 29.84 in 10.0 mi North 10.4 mph - N/A   Clear
1:55 AM 77.9 °F 43.2 °F 29% 29.84 in 10.0 mi NW 4.6 mph - N/A   Clear
2:55 AM 74.3 °F 45.1 °F 35% 29.84 in 10.0 mi North 4.6 mph - N/A   Mostly Cloudy
3:55 AM 74.3 °F 42.6 °F 32% 29.85 in 10.0 mi NNE 6.9 mph - N/A   Clear
4:55 AM 72.7 °F 43.2 °F 35% 29.85 in 10.0 mi NNW 4.6 mph - N/A   Clear
5:55 AM 71.8 °F 44.1 °F 37% 29.87 in 10.0 mi NNE 5.8 mph - N/A   Clear
6:55 AM 72.5 °F 45.3 °F 38% 29.88 in 10.0 mi NNE 3.5 mph - N/A   Clear
7:55 AM 77.0 °F 45.5 °F 33% 29.91 in 10.0 mi NNW 3.5 mph - N/A   Clear
8:55 AM 82.4 °F 49.1 °F 31% 29.92 in 10.0 mi SSE 3.5 mph - N/A   Clear
9:55 AM 85.8 °F 48.7 °F 28% 29.92 in 10.0 mi Calm Calm - N/A   Clear
10:55 AM 89.6 °F 47.8 °F 24% 29.90 in 10.0 mi Calm Calm - N/A   Clear
11:55 AM 93.6 °F 47.5 °F 21% 29.88 in 10.0 mi Calm Calm - N/A   Clear
12:55 PM 96.3 °F 46.9 °F 19% 29.85 in 10.0 mi SW 4.6 mph - N/A   Clear
1:55 PM 98.2 °F 43.9 °F 16% 29.81 in 10.0 mi Variable 4.6 mph - N/A   Clear
2:55 PM 101.7 °F 38.1 °F 11% 29.78 in 10.0 mi SSW 6.9 mph - N/A   Clear
3:55 PM 101.5 °F 36.1 °F 10% 29.76 in 10.0 mi SW 8.1 mph - N/A   Clear
4:55 PM 100.9 °F 35.6 °F 10% 29.75 in 10.0 mi SSW 12.7 mph - N/A   Clear
5:55 PM 98.6 °F 37.0 °F 12% 29.76 in 10.0 mi SW 9.2 mph - N/A   Clear
6:55 PM 91.6 °F 41.9 °F 18% 29.76 in 10.0 mi WSW 10.4 mph - N/A   Clear
7:55 PM 91.0 °F 38.3 °F 16% 29.77 in 10.0 mi WSW 11.5 mph - N/A   Clear
8:55 PM 88.5 °F 39.9 °F 18% 29.78 in 10.0 mi SW 8.1 mph - N/A   Clear
9:55 PM 86.4 °F 39.0 °F 19% 29.80 in 10.0 mi NE 6.9 mph - N/A   Clear
10:55 PM 82.2 °F 40.1 °F 22% 29.80 in 10.0 mi NW 5.8 mph - N/A   Clear
11:55 PM 79.7 °F 40.8 °F 25% 29.80 in 10.0 mi NW 4.6 mph - N/A   Clear